#timestamp,LO_Frequency,Hit,StdDev 
1506074415.1,286046999.5,N
1506074416.0,286046999.5,N
1506074435.8,286046997.4,N
1506074455.7,286046997.3,N
1506074475.5,286046999.6,N
1506074495.3,286046998.8,N
1506074515.2,286046999.5,N
1506074535.0,286046997.0,Y
1506074535.9,286046997.0,P
1506074555.8,286046998.3,N
1506074575.6,286047000.7,N
1506074595.4,286047000.9,N
1506074615.3,286047000.5,N
1506074635.1,286047000.3,N
1506074655.8,286047000.3,N
1506074675.7,286047002.6,N
1506074695.5,286047002.3,N
1506074715.4,286047000.4,N
1506074735.2,286047001.0,N
1506074755.0,286047002.1,N
1506074755.9,286047002.1,N
1506074775.8,286047001.9,N
1506074795.6,286047001.9,N
1506074815.4,286047002.3,N
1506074835.3,286047001.9,N
1506074855.1,286047001.3,N
1506074875.9,286047001.6,N
1506074895.7,286047002.6,N
1506074915.5,286047001.9,N
1506074935.4,286047001.8,N
1506074955.2,286047001.5,N
1506074975.1,286047004.4,Y
1506074976.0,286047004.4,P
1506074995.8,286047002.6,N
1506075015.6,286047002.8,N
1506075035.5,286047000.2,N
1506075055.3,286047001.0,N
1506075075.1,286047000.1,N
1506075095.9,286047000.8,N
1506075115.7,286047000.6,N
1506075135.6,286047000.6,N
1506075155.4,286047000.6,N
1506075175.2,286046999.7,N
1506075195.1,286047002.3,N
1506075196.0,286047002.3,N
1506075215.8,286047002.4,N
1506075235.7,286046999.9,N
1506075255.5,286047002.7,N
1506075275.3,286047002.5,N
1506075295.2,286047002.3,N
1506075315.0,286047002.1,N
1506075315.9,286047002.1,N
1506075335.7,286047002.5,N
1506075355.6,286047002.7,N
1506075375.4,286047001.4,N
1506075395.3,286047001.9,N
1506075415.1,286047001.5,N
1506075416.0,286047001.5,N
1506075435.8,286047004.1,Y
1506075455.7,286046999.7,P
1506075475.5,286047000.7,N
1506075495.4,286047001.1,N
1506075515.2,286047000.4,N
1506075535.0,286047001.5,N
1506075535.9,286047001.5,N
1506075555.8,286047000.0,N
1506075575.6,286047000.5,N
1506075595.5,286047000.8,N
1506075615.3,286047002.8,Y
1506075635.1,286047000.2,P
1506075655.9,286047000.9,N
1506075675.7,286047001.1,P
1506075695.6,286046999.9,N
1506075715.4,286047000.6,N
1506075735.3,286047000.2,N
1506075755.1,286047002.7,Y
1506075756.0,286047002.7,P
1506075775.8,286047001.2,N
1506075795.7,286047000.7,N
1506075815.5,286047000.5,N
1506075835.4,286047000.5,N
1506075855.2,286046999.8,N
1506075875.0,286047000.4,N
1506075875.9,286047000.4,N
1506075895.8,286047000.5,N
1506075915.6,286047000.5,N
1506075935.4,286047000.3,N
1506075955.3,286047000.0,N
1506075975.1,286047000.6,N
1506075995.9,286047000.4,N
1506076015.7,286046999.8,N
1506076035.5,286047002.4,Y
1506076055.4,286047000.4,P
1506076075.2,286047000.9,P
1506076095.1,286047000.5,N
1506076096.0,286047000.5,N
1506076115.8,286047000.7,Y
1506076135.6,286046998.4,P
1506076155.5,286046998.2,N
1506076175.3,286047001.1,N
1506076195.1,286047001.2,N
1506076215.9,286046998.4,N
1506076235.7,286046998.5,N
1506076255.6,286046999.1,N
1506076275.4,286047000.8,N
1506076295.2,286047001.2,N
1506076315.1,286046998.1,N
1506076316.0,286046998.1,N
1506076335.8,286046996.8,N
1506076355.7,286046999.1,N
1506076375.5,286046997.2,N
1506076395.3,286046997.0,N
1506076415.2,286046996.7,N
1506076435.9,286046998.4,N
1506076455.7,286046998.2,N
1506076475.6,286047000.5,N
1506076495.4,286046999.8,N
1506076515.3,286046999.9,N
1506076535.1,286047001.0,N
1506076536.0,286047001.0,N
1506076555.8,286046998.5,N
1506076575.7,286046998.3,N
1506076595.5,286047000.7,N
1506076615.3,286047000.7,N
1506076635.2,286047000.8,N
1506076655.0,286047002.0,N
1506076655.9,286047002.0,N
1506076675.8,286047002.7,N
1506076695.6,286047000.2,N
1506076715.4,286046998.1,N
1506076735.3,286046998.3,N
1506076755.1,286047001.2,N
1506076775.8,286047001.2,N
1506076795.7,286046999.7,N
1506076815.5,286046999.7,N
1506076835.4,286047002.6,N
1506076855.2,286046999.8,N
1506076875.0,286047000.6,N
1506076875.9,286047000.6,N
1506076895.8,286047000.4,N
1506076915.6,286047000.8,N
1506076935.5,286047000.5,N
1506076955.3,286047001.2,N
1506076975.1,286047001.0,N
1506076995.9,286047000.7,N
1506077015.7,286047001.2,N
1506077035.5,286047000.8,N
1506077055.4,286047001.0,N
1506077075.2,286047001.2,N
1506077095.1,286047000.9,N
1506077096.0,286047000.9,N
1506077115.8,286047000.5,N
1506077135.6,286047001.0,N
1506077155.5,286046998.3,N
1506077175.3,286046998.1,N
1506077195.1,286047000.8,N
1506077215.9,286047000.6,N
1506077235.7,286047000.5,N
1506077255.6,286047001.1,N
1506077275.4,286047000.8,N
1506077295.2,286046998.1,N
1506077315.1,286047000.7,N
1506077316.0,286047000.7,N
1506077335.8,286046998.3,N
1506077355.7,286046998.4,N
1506077375.5,286046998.6,N
1506077395.3,286046998.3,N
1506077415.2,286047001.1,N
1506077435.0,286046998.8,N
1506077435.9,286046998.8,N
1506077455.8,286046998.9,N
1506077475.6,286046998.6,N
1506077495.4,286046996.5,N
1506077515.3,286046999.0,N
1506077535.1,286046998.4,N
1506077555.8,286046998.1,N
1506077575.7,286047001.2,N
1506077595.5,286047001.2,N
1506077615.4,286047002.8,N
1506077635.2,286047000.4,N
1506077655.0,286047000.9,N
1506077655.9,286047000.9,N
1506077675.8,286047002.7,N
1506077695.6,286047000.6,N
1506077715.4,286047000.4,N
1506077735.3,286047000.8,N
1506077755.1,286047000.6,N
1506077775.9,286047001.9,N
1506077795.7,286047000.3,N
1506077815.5,286047001.9,N
1506077835.4,286047004.3,N
1506077855.2,286047001.8,N
1506077875.0,286047003.8,N
1506077876.0,286047003.8,N
1506077895.8,286047001.5,N
1506077915.6,286047002.2,N
1506077935.5,286046999.9,N
1506077955.3,286047002.5,N
1506077975.1,286047001.4,N
1506077995.9,286047002.5,N
